locationName,lineName,date,time,countIn,countOut
�n����ʂ�,3_1_1,2022/7/1,0:00,5,3
�n����ʂ�,3_1_1,2022/7/1,1:00,4,1
�n����ʂ�,3_1_1,2022/7/1,2:00,4,3
�n����ʂ�,3_1_1,2022/7/1,3:00,0,7
�n����ʂ�,3_1_1,2022/7/1,4:00,8,6
�n����ʂ�,3_1_1,2022/7/1,5:00,30,37
�n����ʂ�,3_1_1,2022/7/1,6:00,40,71
�n����ʂ�,3_1_1,2022/7/1,7:00,89,521
�n����ʂ�,3_1_1,2022/7/1,8:00,111,365
�n����ʂ�,3_1_1,2022/7/1,9:00,150,121
�n����ʂ�,3_1_1,2022/7/1,10:00,140,137
�n����ʂ�,3_1_1,2022/7/1,11:00,155,143
�n����ʂ�,3_1_1,2022/7/1,12:00,274,154
�n����ʂ�,3_1_1,2022/7/1,13:00,313,101
�n����ʂ�,3_1_1,2022/7/1,14:00,122,85
�n����ʂ�,3_1_1,2022/7/1,15:00,128,102
�n����ʂ�,3_1_1,2022/7/1,16:00,205,128
�n����ʂ�,3_1_1,2022/7/1,17:00,241,122
�n����ʂ�,3_1_1,2022/7/1,18:00,176,155
�n����ʂ�,3_1_1,2022/7/1,19:00,89,97
�n����ʂ�,3_1_1,2022/7/1,20:00,44,73
�n����ʂ�,3_1_1,2022/7/1,21:00,78,44
�n����ʂ�,3_1_1,2022/7/1,22:00,51,40
�n����ʂ�,3_1_1,2022/7/1,23:00,21,12
�n����ʂ�,3_1_1,2022/7/2,0:00,7,6
�n����ʂ�,3_1_1,2022/7/2,1:00,9,5
�n����ʂ�,3_1_1,2022/7/2,2:00,11,9
�n����ʂ�,3_1_1,2022/7/2,3:00,6,15
�n����ʂ�,3_1_1,2022/7/2,4:00,7,12
�n����ʂ�,3_1_1,2022/7/2,5:00,31,27
�n����ʂ�,3_1_1,2022/7/2,6:00,52,68
�n����ʂ�,3_1_1,2022/7/2,7:00,64,353
�n����ʂ�,3_1_1,2022/7/2,8:00,76,242
�n����ʂ�,3_1_1,2022/7/2,9:00,118,111
�n����ʂ�,3_1_1,2022/7/2,10:00,151,207
�n����ʂ�,3_1_1,2022/7/2,11:00,201,182
�n����ʂ�,3_1_1,2022/7/2,12:00,251,270
�n����ʂ�,3_1_1,2022/7/2,13:00,258,240
�n����ʂ�,3_1_1,2022/7/2,14:00,327,188
�n����ʂ�,3_1_1,2022/7/2,15:00,285,207
�n����ʂ�,3_1_1,2022/7/2,16:00,234,191
�n����ʂ�,3_1_1,2022/7/2,17:00,216,192
�n����ʂ�,3_1_1,2022/7/2,18:00,150,205
�n����ʂ�,3_1_1,2022/7/2,19:00,126,132
�n����ʂ�,3_1_1,2022/7/2,20:00,117,66
�n����ʂ�,3_1_1,2022/7/2,21:00,58,62
�n����ʂ�,3_1_1,2022/7/2,22:00,19,15
�n����ʂ�,3_1_1,2022/7/2,23:00,23,5
�n����ʂ�,3_1_1,2022/7/3,0:00,5,4
�n����ʂ�,3_1_1,2022/7/3,1:00,1,4
�n����ʂ�,3_1_1,2022/7/3,2:00,6,2
�n����ʂ�,3_1_1,2022/7/3,3:00,1,6
�n����ʂ�,3_1_1,2022/7/3,4:00,3,4
�n����ʂ�,3_1_1,2022/7/3,5:00,22,19
�n����ʂ�,3_1_1,2022/7/3,6:00,19,29
�n����ʂ�,3_1_1,2022/7/3,7:00,41,90
�n����ʂ�,3_1_1,2022/7/3,8:00,79,118
�n����ʂ�,3_1_1,2022/7/3,9:00,96,148
�n����ʂ�,3_1_1,2022/7/3,10:00,192,222
�n����ʂ�,3_1_1,2022/7/3,11:00,225,242
�n����ʂ�,3_1_1,2022/7/3,12:00,345,291
�n����ʂ�,3_1_1,2022/7/3,13:00,318,328
�n����ʂ�,3_1_1,2022/7/3,14:00,310,285
�n����ʂ�,3_1_1,2022/7/3,15:00,226,215
�n����ʂ�,3_1_1,2022/7/3,16:00,185,192
�n����ʂ�,3_1_1,2022/7/3,17:00,172,145
�n����ʂ�,3_1_1,2022/7/3,18:00,108,94
�n����ʂ�,3_1_1,2022/7/3,19:00,57,46
�n����ʂ�,3_1_1,2022/7/3,20:00,40,34
�n����ʂ�,3_1_1,2022/7/3,21:00,19,28
�n����ʂ�,3_1_1,2022/7/3,22:00,19,18
�n����ʂ�,3_1_1,2022/7/3,23:00,2,0
�n����ʂ�,3_1_1,2022/7/4,0:00,0,2
�n����ʂ�,3_1_1,2022/7/4,1:00,1,0
�n����ʂ�,3_1_1,2022/7/4,2:00,4,2
�n����ʂ�,3_1_1,2022/7/4,3:00,4,5
�n����ʂ�,3_1_1,2022/7/4,4:00,6,5
�n����ʂ�,3_1_1,2022/7/4,5:00,33,24
�n����ʂ�,3_1_1,2022/7/4,6:00,35,51
�n����ʂ�,3_1_1,2022/7/4,7:00,51,172
�n����ʂ�,3_1_1,2022/7/4,8:00,85,212
�n����ʂ�,3_1_1,2022/7/4,9:00,106,79
�n����ʂ�,3_1_1,2022/7/4,10:00,129,94
�n����ʂ�,3_1_1,2022/7/4,11:00,121,132
�n����ʂ�,3_1_1,2022/7/4,12:00,169,139
�n����ʂ�,3_1_1,2022/7/4,13:00,134,161
�n����ʂ�,3_1_1,2022/7/4,14:00,139,93
�n����ʂ�,3_1_1,2022/7/4,15:00,139,91
�n����ʂ�,3_1_1,2022/7/4,16:00,160,100
�n����ʂ�,3_1_1,2022/7/4,17:00,170,96
�n����ʂ�,3_1_1,2022/7/4,18:00,211,72
�n����ʂ�,3_1_1,2022/7/4,19:00,75,58
�n����ʂ�,3_1_1,2022/7/4,20:00,39,47
�n����ʂ�,3_1_1,2022/7/4,21:00,46,33
�n����ʂ�,3_1_1,2022/7/4,22:00,5,4
�n����ʂ�,3_1_1,2022/7/4,23:00,4,2
�n����ʂ�,3_1_1,2022/7/5,0:00,3,3
�n����ʂ�,3_1_1,2022/7/5,1:00,3,0
�n����ʂ�,3_1_1,2022/7/5,2:00,1,2
�n����ʂ�,3_1_1,2022/7/5,3:00,5,6
�n����ʂ�,3_1_1,2022/7/5,4:00,1,6
�n����ʂ�,3_1_1,2022/7/5,5:00,23,24
�n����ʂ�,3_1_1,2022/7/5,6:00,30,52
�n����ʂ�,3_1_1,2022/7/5,7:00,56,315
�n����ʂ�,3_1_1,2022/7/5,8:00,103,291
�n����ʂ�,3_1_1,2022/7/5,9:00,146,108
�n����ʂ�,3_1_1,2022/7/5,10:00,143,132
�n����ʂ�,3_1_1,2022/7/5,11:00,126,110
�n����ʂ�,3_1_1,2022/7/5,12:00,153,160
�n����ʂ�,3_1_1,2022/7/5,13:00,134,153
�n����ʂ�,3_1_1,2022/7/5,14:00,148,103
�n����ʂ�,3_1_1,2022/7/5,15:00,128,89
�n����ʂ�,3_1_1,2022/7/5,16:00,232,126
�n����ʂ�,3_1_1,2022/7/5,17:00,209,94
�n����ʂ�,3_1_1,2022/7/5,18:00,291,106
�n����ʂ�,3_1_1,2022/7/5,19:00,82,81
�n����ʂ�,3_1_1,2022/7/5,20:00,54,45
�n����ʂ�,3_1_1,2022/7/5,21:00,72,55
�n����ʂ�,3_1_1,2022/7/5,22:00,20,15
�n����ʂ�,3_1_1,2022/7/5,23:00,5,4
�n����ʂ�,3_1_1,2022/7/6,0:00,8,3
�n����ʂ�,3_1_1,2022/7/6,1:00,5,0
�n����ʂ�,3_1_1,2022/7/6,2:00,2,1
�n����ʂ�,3_1_1,2022/7/6,3:00,2,8
�n����ʂ�,3_1_1,2022/7/6,4:00,9,6
�n����ʂ�,3_1_1,2022/7/6,5:00,21,36
�n����ʂ�,3_1_1,2022/7/6,6:00,34,48
�n����ʂ�,3_1_1,2022/7/6,7:00,81,390
�n����ʂ�,3_1_1,2022/7/6,8:00,96,337
�n����ʂ�,3_1_1,2022/7/6,9:00,135,96
�n����ʂ�,3_1_1,2022/7/6,10:00,143,150
�n����ʂ�,3_1_1,2022/7/6,11:00,113,107
�n����ʂ�,3_1_1,2022/7/6,12:00,143,146
�n����ʂ�,3_1_1,2022/7/6,13:00,112,109
�n����ʂ�,3_1_1,2022/7/6,14:00,121,98
�n����ʂ�,3_1_1,2022/7/6,15:00,149,86
�n����ʂ�,3_1_1,2022/7/6,16:00,295,81
�n����ʂ�,3_1_1,2022/7/6,17:00,145,123
�n����ʂ�,3_1_1,2022/7/6,18:00,73,72
�n����ʂ�,3_1_1,2022/7/6,19:00,45,49
�n����ʂ�,3_1_1,2022/7/6,20:00,41,38
�n����ʂ�,3_1_1,2022/7/6,21:00,69,22
�n����ʂ�,3_1_1,2022/7/6,22:00,2,8
�n����ʂ�,3_1_1,2022/7/6,23:00,2,5
�n����ʂ�,3_1_1,2022/7/7,0:00,4,1
�n����ʂ�,3_1_1,2022/7/7,1:00,2,1
�n����ʂ�,3_1_1,2022/7/7,2:00,2,2
�n����ʂ�,3_1_1,2022/7/7,3:00,2,3
�n����ʂ�,3_1_1,2022/7/7,4:00,2,5
�n����ʂ�,3_1_1,2022/7/7,5:00,26,33
�n����ʂ�,3_1_1,2022/7/7,6:00,39,41
�n����ʂ�,3_1_1,2022/7/7,7:00,70,298
�n����ʂ�,3_1_1,2022/7/7,8:00,77,315
�n����ʂ�,3_1_1,2022/7/7,9:00,140,113
�n����ʂ�,3_1_1,2022/7/7,10:00,110,126
�n����ʂ�,3_1_1,2022/7/7,11:00,126,115
�n����ʂ�,3_1_1,2022/7/7,12:00,142,146
�n����ʂ�,3_1_1,2022/7/7,13:00,129,125
�n����ʂ�,3_1_1,2022/7/7,14:00,152,112
�n����ʂ�,3_1_1,2022/7/7,15:00,84,113
�n����ʂ�,3_1_1,2022/7/7,16:00,190,108
�n����ʂ�,3_1_1,2022/7/7,17:00,239,118
�n����ʂ�,3_1_1,2022/7/7,18:00,297,97
�n����ʂ�,3_1_1,2022/7/7,19:00,76,61
�n����ʂ�,3_1_1,2022/7/7,20:00,54,55
�n����ʂ�,3_1_1,2022/7/7,21:00,50,29
�n����ʂ�,3_1_1,2022/7/7,22:00,8,4
�n����ʂ�,3_1_1,2022/7/7,23:00,3,5
�n����ʂ�,3_1_1,2022/7/8,0:00,2,2
�n����ʂ�,3_1_1,2022/7/8,1:00,0,1
�n����ʂ�,3_1_1,2022/7/8,2:00,2,1
�n����ʂ�,3_1_1,2022/7/8,3:00,4,3
�n����ʂ�,3_1_1,2022/7/8,4:00,4,7
�n����ʂ�,3_1_1,2022/7/8,5:00,26,29
�n����ʂ�,3_1_1,2022/7/8,6:00,29,52
�n����ʂ�,3_1_1,2022/7/8,7:00,43,176
�n����ʂ�,3_1_1,2022/7/8,8:00,71,200
�n����ʂ�,3_1_1,2022/7/8,9:00,97,99
�n����ʂ�,3_1_1,2022/7/8,10:00,122,117
�n����ʂ�,3_1_1,2022/7/8,11:00,144,105
�n����ʂ�,3_1_1,2022/7/8,12:00,82,118
�n����ʂ�,3_1_1,2022/7/8,13:00,106,104
�n����ʂ�,3_1_1,2022/7/8,14:00,102,94
�n����ʂ�,3_1_1,2022/7/8,15:00,117,83
�n����ʂ�,3_1_1,2022/7/8,16:00,104,84
�n����ʂ�,3_1_1,2022/7/8,17:00,110,60
�n����ʂ�,3_1_1,2022/7/8,18:00,121,49
�n����ʂ�,3_1_1,2022/7/8,19:00,26,40
�n����ʂ�,3_1_1,2022/7/8,20:00,35,35
�n����ʂ�,3_1_1,2022/7/8,21:00,15,22
�n����ʂ�,3_1_1,2022/7/8,22:00,5,4
�n����ʂ�,3_1_1,2022/7/8,23:00,2,1
�n����ʂ�,3_1_1,2022/7/9,0:00,4,0
�n����ʂ�,3_1_1,2022/7/9,1:00,5,0
�n����ʂ�,3_1_1,2022/7/9,2:00,2,0
�n����ʂ�,3_1_1,2022/7/9,3:00,0,1
�n����ʂ�,3_1_1,2022/7/9,4:00,3,1
�n����ʂ�,3_1_1,2022/7/9,5:00,10,2
�n����ʂ�,3_1_1,2022/7/9,6:00,20,14
�n����ʂ�,3_1_1,2022/7/9,7:00,35,33
�n����ʂ�,3_1_1,2022/7/9,8:00,37,46
�n����ʂ�,3_1_1,2022/7/9,9:00,80,49
�n����ʂ�,3_1_1,2022/7/9,10:00,103,103
�n����ʂ�,3_1_1,2022/7/9,11:00,144,126
�n����ʂ�,3_1_1,2022/7/9,12:00,249,190
�n����ʂ�,3_1_1,2022/7/9,13:00,228,203
�n����ʂ�,3_1_1,2022/7/9,14:00,211,185
�n����ʂ�,3_1_1,2022/7/9,15:00,213,180
�n����ʂ�,3_1_1,2022/7/9,16:00,216,186
�n����ʂ�,3_1_1,2022/7/9,17:00,178,169
�n����ʂ�,3_1_1,2022/7/9,18:00,86,116
�n����ʂ�,3_1_1,2022/7/9,19:00,102,100
�n����ʂ�,3_1_1,2022/7/9,20:00,67,49
�n����ʂ�,3_1_1,2022/7/9,21:00,71,27
�n����ʂ�,3_1_1,2022/7/9,22:00,17,10
�n����ʂ�,3_1_1,2022/7/9,23:00,9,5
�n����ʂ�,3_1_1,2022/7/10,0:00,1,6
�n����ʂ�,3_1_1,2022/7/10,1:00,3,0
�n����ʂ�,3_1_1,2022/7/10,2:00,3,3
�n����ʂ�,3_1_1,2022/7/10,3:00,0,2
�n����ʂ�,3_1_1,2022/7/10,4:00,2,2
�n����ʂ�,3_1_1,2022/7/10,5:00,16,13
�n����ʂ�,3_1_1,2022/7/10,6:00,24,32
�n����ʂ�,3_1_1,2022/7/10,7:00,40,49
�n����ʂ�,3_1_1,2022/7/10,8:00,60,65
�n����ʂ�,3_1_1,2022/7/10,9:00,77,66
�n����ʂ�,3_1_1,2022/7/10,10:00,141,143
�n����ʂ�,3_1_1,2022/7/10,11:00,192,227
�n����ʂ�,3_1_1,2022/7/10,12:00,239,255
�n����ʂ�,3_1_1,2022/7/10,13:00,226,205
�n����ʂ�,3_1_1,2022/7/10,14:00,237,224
�n����ʂ�,3_1_1,2022/7/10,15:00,225,179
�n����ʂ�,3_1_1,2022/7/10,16:00,176,129
�n����ʂ�,3_1_1,2022/7/10,17:00,142,75
�n����ʂ�,3_1_1,2022/7/10,18:00,119,62
�n����ʂ�,3_1_1,2022/7/10,19:00,53,75
�n����ʂ�,3_1_1,2022/7/10,20:00,321,45
�n����ʂ�,3_1_1,2022/7/10,21:00,59,23
�n����ʂ�,3_1_1,2022/7/10,22:00,3,4
�n����ʂ�,3_1_1,2022/7/10,23:00,4,4
�n����ʂ�,3_1_1,2022/7/11,0:00,0,4
�n����ʂ�,3_1_1,2022/7/11,1:00,2,1
�n����ʂ�,3_1_1,2022/7/11,2:00,0,1
�n����ʂ�,3_1_1,2022/7/11,3:00,0,2
�n����ʂ�,3_1_1,2022/7/11,4:00,9,3
�n����ʂ�,3_1_1,2022/7/11,5:00,42,22
�n����ʂ�,3_1_1,2022/7/11,6:00,112,47
�n����ʂ�,3_1_1,2022/7/11,7:00,96,318
�n����ʂ�,3_1_1,2022/7/11,8:00,139,274
�n����ʂ�,3_1_1,2022/7/11,9:00,124,100
�n����ʂ�,3_1_1,2022/7/11,10:00,153,125
�n����ʂ�,3_1_1,2022/7/11,11:00,164,160
�n����ʂ�,3_1_1,2022/7/11,12:00,233,165
�n����ʂ�,3_1_1,2022/7/11,13:00,135,120
�n����ʂ�,3_1_1,2022/7/11,14:00,172,138
�n����ʂ�,3_1_1,2022/7/11,15:00,223,114
�n����ʂ�,3_1_1,2022/7/11,16:00,243,104
�n����ʂ�,3_1_1,2022/7/11,17:00,341,100
�n����ʂ�,3_1_1,2022/7/11,18:00,342,72
�n����ʂ�,3_1_1,2022/7/11,19:00,49,40
�n����ʂ�,3_1_1,2022/7/11,20:00,31,27
�n����ʂ�,3_1_1,2022/7/11,21:00,23,9
�n����ʂ�,3_1_1,2022/7/11,22:00,6,5
�n����ʂ�,3_1_1,2022/7/11,23:00,3,5
�n����ʂ�,3_1_1,2022/7/12,0:00,1,0
�n����ʂ�,3_1_1,2022/7/12,1:00,2,0
�n����ʂ�,3_1_1,2022/7/12,2:00,0,1
�n����ʂ�,3_1_1,2022/7/12,3:00,1,2
�n����ʂ�,3_1_1,2022/7/12,4:00,1,1
�n����ʂ�,3_1_1,2022/7/12,5:00,13,14
�n����ʂ�,3_1_1,2022/7/12,6:00,29,28
�n����ʂ�,3_1_1,2022/7/12,7:00,59,184
�n����ʂ�,3_1_1,2022/7/12,8:00,94,245
�n����ʂ�,3_1_1,2022/7/12,9:00,145,88
�n����ʂ�,3_1_1,2022/7/12,10:00,174,134
�n����ʂ�,3_1_1,2022/7/12,11:00,153,138
�n����ʂ�,3_1_1,2022/7/12,12:00,204,131
�n����ʂ�,3_1_1,2022/7/12,13:00,166,136
�n����ʂ�,3_1_1,2022/7/12,14:00,161,98
�n����ʂ�,3_1_1,2022/7/12,15:00,134,91
�n����ʂ�,3_1_1,2022/7/12,16:00,202,90
�n����ʂ�,3_1_1,2022/7/12,17:00,207,71
�n����ʂ�,3_1_1,2022/7/12,18:00,264,73
�n����ʂ�,3_1_1,2022/7/12,19:00,91,67
�n����ʂ�,3_1_1,2022/7/12,20:00,73,44
�n����ʂ�,3_1_1,2022/7/12,21:00,46,29
�n����ʂ�,3_1_1,2022/7/12,22:00,3,4
�n����ʂ�,3_1_1,2022/7/12,23:00,2,1
�n����ʂ�,3_1_1,2022/7/13,0:00,5,2
�n����ʂ�,3_1_1,2022/7/13,1:00,1,0
�n����ʂ�,3_1_1,2022/7/13,2:00,0,0
�n����ʂ�,3_1_1,2022/7/13,3:00,0,1
�n����ʂ�,3_1_1,2022/7/13,4:00,8,4
�n����ʂ�,3_1_1,2022/7/13,5:00,13,27
�n����ʂ�,3_1_1,2022/7/13,6:00,35,46
�n����ʂ�,3_1_1,2022/7/13,7:00,81,321
�n����ʂ�,3_1_1,2022/7/13,8:00,112,310
�n����ʂ�,3_1_1,2022/7/13,9:00,170,106
�n����ʂ�,3_1_1,2022/7/13,10:00,125,124
�n����ʂ�,3_1_1,2022/7/13,11:00,139,143
�n����ʂ�,3_1_1,2022/7/13,12:00,142,138
�n����ʂ�,3_1_1,2022/7/13,13:00,131,122
�n����ʂ�,3_1_1,2022/7/13,14:00,140,106
�n����ʂ�,3_1_1,2022/7/13,15:00,175,135
�n����ʂ�,3_1_1,2022/7/13,16:00,356,77
�n����ʂ�,3_1_1,2022/7/13,17:00,193,73
�n����ʂ�,3_1_1,2022/7/13,18:00,107,80
�n����ʂ�,3_1_1,2022/7/13,19:00,65,42
�n����ʂ�,3_1_1,2022/7/13,20:00,50,23
�n����ʂ�,3_1_1,2022/7/13,21:00,63,20
�n����ʂ�,3_1_1,2022/7/13,22:00,9,2
�n����ʂ�,3_1_1,2022/7/13,23:00,0,4
�n����ʂ�,3_1_1,2022/7/14,0:00,4,2
�n����ʂ�,3_1_1,2022/7/14,1:00,0,2
�n����ʂ�,3_1_1,2022/7/14,2:00,0,1
�n����ʂ�,3_1_1,2022/7/14,3:00,0,3
�n����ʂ�,3_1_1,2022/7/14,4:00,0,4
�n����ʂ�,3_1_1,2022/7/14,5:00,30,30
�n����ʂ�,3_1_1,2022/7/14,6:00,18,58
�n����ʂ�,3_1_1,2022/7/14,7:00,28,146
�n����ʂ�,3_1_1,2022/7/14,8:00,50,223
�n����ʂ�,3_1_1,2022/7/14,9:00,66,149
�n����ʂ�,3_1_1,2022/7/14,10:00,54,160
�n����ʂ�,3_1_1,2022/7/14,11:00,50,185
�n����ʂ�,3_1_1,2022/7/14,12:00,103,310
�n����ʂ�,3_1_1,2022/7/14,13:00,79,201
�n����ʂ�,3_1_1,2022/7/14,14:00,118,160
�n����ʂ�,3_1_1,2022/7/14,15:00,69,190
�n����ʂ�,3_1_1,2022/7/14,16:00,68,140
�n����ʂ�,3_1_1,2022/7/14,17:00,87,191
�n����ʂ�,3_1_1,2022/7/14,18:00,124,176
�n����ʂ�,3_1_1,2022/7/14,19:00,29,99
�n����ʂ�,3_1_1,2022/7/14,20:00,39,77
�n����ʂ�,3_1_1,2022/7/14,21:00,37,66
�n����ʂ�,3_1_1,2022/7/14,22:00,0,5
�n����ʂ�,3_1_1,2022/7/14,23:00,0,6
�n����ʂ�,3_1_1,2022/7/15,0:00,1,0
�n����ʂ�,3_1_1,2022/7/15,1:00,2,0
�n����ʂ�,3_1_1,2022/7/15,2:00,0,3
�n����ʂ�,3_1_1,2022/7/15,3:00,0,3
�n����ʂ�,3_1_1,2022/7/15,4:00,1,2
�n����ʂ�,3_1_1,2022/7/15,5:00,12,35
�n����ʂ�,3_1_1,2022/7/15,6:00,30,62
�n����ʂ�,3_1_1,2022/7/15,7:00,47,429
�n����ʂ�,3_1_1,2022/7/15,8:00,67,529
�n����ʂ�,3_1_1,2022/7/15,9:00,130,223
�n����ʂ�,3_1_1,2022/7/15,10:00,164,341
�n����ʂ�,3_1_1,2022/7/15,11:00,212,352
�n����ʂ�,3_1_1,2022/7/15,12:00,189,424
�n����ʂ�,3_1_1,2022/7/15,13:00,210,357
�n����ʂ�,3_1_1,2022/7/15,14:00,198,280
�n����ʂ�,3_1_1,2022/7/15,15:00,182,232
�n����ʂ�,3_1_1,2022/7/15,16:00,250,321
�n����ʂ�,3_1_1,2022/7/15,17:00,235,299
�n����ʂ�,3_1_1,2022/7/15,18:00,305,287
�n����ʂ�,3_1_1,2022/7/15,19:00,93,208
�n����ʂ�,3_1_1,2022/7/15,20:00,65,138
�n����ʂ�,3_1_1,2022/7/15,21:00,56,80
�n����ʂ�,3_1_1,2022/7/15,22:00,29,17
�n����ʂ�,3_1_1,2022/7/15,23:00,15,15
�n����ʂ�,3_1_1,2022/7/16,0:00,10,8
�n����ʂ�,3_1_1,2022/7/16,1:00,8,2
�n����ʂ�,3_1_1,2022/7/16,2:00,3,2
�n����ʂ�,3_1_1,2022/7/16,3:00,4,8
�n����ʂ�,3_1_1,2022/7/16,4:00,5,5
�n����ʂ�,3_1_1,2022/7/16,5:00,60,58
�n����ʂ�,3_1_1,2022/7/16,6:00,34,82
�n����ʂ�,3_1_1,2022/7/16,7:00,46,184
�n����ʂ�,3_1_1,2022/7/16,8:00,89,206
�n����ʂ�,3_1_1,2022/7/16,9:00,146,333
�n����ʂ�,3_1_1,2022/7/16,10:00,197,539
�n����ʂ�,3_1_1,2022/7/16,11:00,273,697
�n����ʂ�,3_1_1,2022/7/16,12:00,290,794
�n����ʂ�,3_1_1,2022/7/16,13:00,272,758
�n����ʂ�,3_1_1,2022/7/16,14:00,317,729
�n����ʂ�,3_1_1,2022/7/16,15:00,307,575
�n����ʂ�,3_1_1,2022/7/16,16:00,246,507
�n����ʂ�,3_1_1,2022/7/16,17:00,235,430
�n����ʂ�,3_1_1,2022/7/16,18:00,214,493
�n����ʂ�,3_1_1,2022/7/16,19:00,117,276
�n����ʂ�,3_1_1,2022/7/16,20:00,100,251
�n����ʂ�,3_1_1,2022/7/16,21:00,81,134
�n����ʂ�,3_1_1,2022/7/16,22:00,32,73
�n����ʂ�,3_1_1,2022/7/16,23:00,10,8
�n����ʂ�,3_1_1,2022/7/17,0:00,4,3
�n����ʂ�,3_1_1,2022/7/17,1:00,4,3
�n����ʂ�,3_1_1,2022/7/17,2:00,7,1
�n����ʂ�,3_1_1,2022/7/17,3:00,3,11
�n����ʂ�,3_1_1,2022/7/17,4:00,5,4
�n����ʂ�,3_1_1,2022/7/17,5:00,37,46
�n����ʂ�,3_1_1,2022/7/17,6:00,43,98
�n����ʂ�,3_1_1,2022/7/17,7:00,67,193
�n����ʂ�,3_1_1,2022/7/17,8:00,82,195
�n����ʂ�,3_1_1,2022/7/17,9:00,120,364
�n����ʂ�,3_1_1,2022/7/17,10:00,260,717
�n����ʂ�,3_1_1,2022/7/17,11:00,280,833
�n����ʂ�,3_1_1,2022/7/17,12:00,372,1023
�n����ʂ�,3_1_1,2022/7/17,13:00,491,1063
�n����ʂ�,3_1_1,2022/7/17,14:00,468,811
�n����ʂ�,3_1_1,2022/7/17,15:00,512,991
�n����ʂ�,3_1_1,2022/7/17,16:00,422,771
�n����ʂ�,3_1_1,2022/7/17,17:00,341,615
�n����ʂ�,3_1_1,2022/7/17,18:00,163,466
�n����ʂ�,3_1_1,2022/7/17,19:00,111,286
�n����ʂ�,3_1_1,2022/7/17,20:00,79,135
�n����ʂ�,3_1_1,2022/7/17,21:00,64,110
�n����ʂ�,3_1_1,2022/7/17,22:00,25,58
�n����ʂ�,3_1_1,2022/7/17,23:00,21,33
�n����ʂ�,3_1_1,2022/7/18,0:00,11,3
�n����ʂ�,3_1_1,2022/7/18,1:00,4,9
�n����ʂ�,3_1_1,2022/7/18,2:00,5,5
�n����ʂ�,3_1_1,2022/7/18,3:00,3,10
�n����ʂ�,3_1_1,2022/7/18,4:00,5,5
�n����ʂ�,3_1_1,2022/7/18,5:00,21,45
�n����ʂ�,3_1_1,2022/7/18,6:00,32,69
�n����ʂ�,3_1_1,2022/7/18,7:00,38,126
�n����ʂ�,3_1_1,2022/7/18,8:00,86,214
�n����ʂ�,3_1_1,2022/7/18,9:00,101,318
�n����ʂ�,3_1_1,2022/7/18,10:00,188,635
�n����ʂ�,3_1_1,2022/7/18,11:00,269,598
�n����ʂ�,3_1_1,2022/7/18,12:00,375,951
�n����ʂ�,3_1_1,2022/7/18,13:00,344,945
�n����ʂ�,3_1_1,2022/7/18,14:00,337,805
�n����ʂ�,3_1_1,2022/7/18,15:00,299,483
�n����ʂ�,3_1_1,2022/7/18,16:00,187,455
�n����ʂ�,3_1_1,2022/7/18,17:00,160,261
�n����ʂ�,3_1_1,2022/7/18,18:00,108,164
�n����ʂ�,3_1_1,2022/7/18,19:00,41,88
�n����ʂ�,3_1_1,2022/7/18,20:00,39,97
�n����ʂ�,3_1_1,2022/7/18,21:00,11,51
�n����ʂ�,3_1_1,2022/7/18,22:00,8,4
�n����ʂ�,3_1_1,2022/7/18,23:00,0,2
�n����ʂ�,3_1_1,2022/7/19,0:00,1,2
�n����ʂ�,3_1_1,2022/7/19,1:00,1,3
�n����ʂ�,3_1_1,2022/7/19,2:00,1,0
�n����ʂ�,3_1_1,2022/7/19,3:00,0,19
�n����ʂ�,3_1_1,2022/7/19,4:00,2,6
�n����ʂ�,3_1_1,2022/7/19,5:00,21,51
�n����ʂ�,3_1_1,2022/7/19,6:00,44,110
�n����ʂ�,3_1_1,2022/7/19,7:00,86,365
�n����ʂ�,3_1_1,2022/7/19,8:00,120,432
�n����ʂ�,3_1_1,2022/7/19,9:00,127,174
�n����ʂ�,3_1_1,2022/7/19,10:00,140,191
�n����ʂ�,3_1_1,2022/7/19,11:00,105,194
�n����ʂ�,3_1_1,2022/7/19,12:00,160,232
�n����ʂ�,3_1_1,2022/7/19,13:00,148,271
�n����ʂ�,3_1_1,2022/7/19,14:00,153,260
�n����ʂ�,3_1_1,2022/7/19,15:00,114,295
�n����ʂ�,3_1_1,2022/7/19,16:00,148,217
�n����ʂ�,3_1_1,2022/7/19,17:00,253,188
�n����ʂ�,3_1_1,2022/7/19,18:00,169,197
�n����ʂ�,3_1_1,2022/7/19,19:00,82,118
�n����ʂ�,3_1_1,2022/7/19,20:00,47,88
�n����ʂ�,3_1_1,2022/7/19,21:00,30,69
�n����ʂ�,3_1_1,2022/7/19,22:00,19,30
�n����ʂ�,3_1_1,2022/7/19,23:00,1,1
�n����ʂ�,3_1_1,2022/7/20,0:00,4,4
�n����ʂ�,3_1_1,2022/7/20,1:00,4,2
�n����ʂ�,3_1_1,2022/7/20,2:00,0,1
�n����ʂ�,3_1_1,2022/7/20,3:00,3,7
�n����ʂ�,3_1_1,2022/7/20,4:00,5,6
�n����ʂ�,3_1_1,2022/7/20,5:00,38,27
�n����ʂ�,3_1_1,2022/7/20,6:00,57,72
�n����ʂ�,3_1_1,2022/7/20,7:00,93,411
�n����ʂ�,3_1_1,2022/7/20,8:00,113,331
�n����ʂ�,3_1_1,2022/7/20,9:00,139,139
�n����ʂ�,3_1_1,2022/7/20,10:00,171,163
�n����ʂ�,3_1_1,2022/7/20,11:00,177,179
�n����ʂ�,3_1_1,2022/7/20,12:00,336,140
�n����ʂ�,3_1_1,2022/7/20,13:00,231,133
�n����ʂ�,3_1_1,2022/7/20,14:00,138,66
�n����ʂ�,3_1_1,2022/7/20,15:00,134,104
�n����ʂ�,3_1_1,2022/7/20,16:00,183,124
�n����ʂ�,3_1_1,2022/7/20,17:00,217,112
�n����ʂ�,3_1_1,2022/7/20,18:00,139,127
�n����ʂ�,3_1_1,2022/7/20,19:00,75,78
�n����ʂ�,3_1_1,2022/7/20,20:00,56,56
�n����ʂ�,3_1_1,2022/7/20,21:00,77,40
�n����ʂ�,3_1_1,2022/7/20,22:00,34,19
�n����ʂ�,3_1_1,2022/7/20,23:00,5,6
�n����ʂ�,3_1_1,2022/7/21,0:00,4,4
�n����ʂ�,3_1_1,2022/7/21,1:00,2,1
�n����ʂ�,3_1_1,2022/7/21,2:00,3,3
�n����ʂ�,3_1_1,2022/7/21,3:00,0,7
�n����ʂ�,3_1_1,2022/7/21,4:00,3,6
�n����ʂ�,3_1_1,2022/7/21,5:00,23,16
�n����ʂ�,3_1_1,2022/7/21,6:00,38,42
�n����ʂ�,3_1_1,2022/7/21,7:00,62,153
�n����ʂ�,3_1_1,2022/7/21,8:00,116,220
�n����ʂ�,3_1_1,2022/7/21,9:00,128,138
�n����ʂ�,3_1_1,2022/7/21,10:00,153,138
�n����ʂ�,3_1_1,2022/7/21,11:00,162,119
�n����ʂ�,3_1_1,2022/7/21,12:00,202,117
�n����ʂ�,3_1_1,2022/7/21,13:00,141,131
�n����ʂ�,3_1_1,2022/7/21,14:00,127,128
�n����ʂ�,3_1_1,2022/7/21,15:00,147,83
�n����ʂ�,3_1_1,2022/7/21,16:00,186,98
�n����ʂ�,3_1_1,2022/7/21,17:00,179,102
�n����ʂ�,3_1_1,2022/7/21,18:00,115,98
�n����ʂ�,3_1_1,2022/7/21,19:00,80,71
�n����ʂ�,3_1_1,2022/7/21,20:00,70,54
�n����ʂ�,3_1_1,2022/7/21,21:00,55,25
�n����ʂ�,3_1_1,2022/7/21,22:00,12,10
�n����ʂ�,3_1_1,2022/7/21,23:00,4,4
�n����ʂ�,3_1_1,2022/7/22,0:00,5,4
�n����ʂ�,3_1_1,2022/7/22,1:00,3,0
�n����ʂ�,3_1_1,2022/7/22,2:00,1,2
�n����ʂ�,3_1_1,2022/7/22,3:00,1,6
�n����ʂ�,3_1_1,2022/7/22,4:00,13,10
�n����ʂ�,3_1_1,2022/7/22,5:00,55,33
�n����ʂ�,3_1_1,2022/7/22,6:00,63,31
�n����ʂ�,3_1_1,2022/7/22,7:00,85,139
�n����ʂ�,3_1_1,2022/7/22,8:00,94,180
�n����ʂ�,3_1_1,2022/7/22,9:00,159,168
�n����ʂ�,3_1_1,2022/7/22,10:00,182,181
�n����ʂ�,3_1_1,2022/7/22,11:00,212,190
�n����ʂ�,3_1_1,2022/7/22,12:00,206,201
�n����ʂ�,3_1_1,2022/7/22,13:00,209,186
�n����ʂ�,3_1_1,2022/7/22,14:00,219,145
�n����ʂ�,3_1_1,2022/7/22,15:00,188,121
�n����ʂ�,3_1_1,2022/7/22,16:00,208,143
�n����ʂ�,3_1_1,2022/7/22,17:00,225,130
�n����ʂ�,3_1_1,2022/7/22,18:00,206,169
�n����ʂ�,3_1_1,2022/7/22,19:00,138,115
�n����ʂ�,3_1_1,2022/7/22,20:00,82,60
�n����ʂ�,3_1_1,2022/7/22,21:00,57,46
�n����ʂ�,3_1_1,2022/7/22,22:00,19,7
�n����ʂ�,3_1_1,2022/7/22,23:00,12,10
�n����ʂ�,3_1_1,2022/7/23,0:00,8,5
�n����ʂ�,3_1_1,2022/7/23,1:00,4,0
�n����ʂ�,3_1_1,2022/7/23,2:00,7,2
�n����ʂ�,3_1_1,2022/7/23,3:00,2,9
�n����ʂ�,3_1_1,2022/7/23,4:00,7,3
�n����ʂ�,3_1_1,2022/7/23,5:00,23,25
�n����ʂ�,3_1_1,2022/7/23,6:00,40,38
�n����ʂ�,3_1_1,2022/7/23,7:00,57,86
�n����ʂ�,3_1_1,2022/7/23,8:00,84,110
�n����ʂ�,3_1_1,2022/7/23,9:00,107,156
�n����ʂ�,3_1_1,2022/7/23,10:00,183,171
�n����ʂ�,3_1_1,2022/7/23,11:00,242,255
�n����ʂ�,3_1_1,2022/7/23,12:00,325,395
�n����ʂ�,3_1_1,2022/7/23,13:00,294,307
�n����ʂ�,3_1_1,2022/7/23,14:00,284,220
�n����ʂ�,3_1_1,2022/7/23,15:00,296,239
�n����ʂ�,3_1_1,2022/7/23,16:00,267,263
�n����ʂ�,3_1_1,2022/7/23,17:00,234,253
�n����ʂ�,3_1_1,2022/7/23,18:00,186,199
�n����ʂ�,3_1_1,2022/7/23,19:00,127,164
�n����ʂ�,3_1_1,2022/7/23,20:00,110,94
�n����ʂ�,3_1_1,2022/7/23,21:00,72,36
�n����ʂ�,3_1_1,2022/7/23,22:00,28,17
�n����ʂ�,3_1_1,2022/7/23,23:00,24,4
�n����ʂ�,3_1_1,2022/7/24,0:00,5,4
�n����ʂ�,3_1_1,2022/7/24,1:00,5,2
�n����ʂ�,3_1_1,2022/7/24,2:00,6,1
�n����ʂ�,3_1_1,2022/7/24,3:00,3,5
�n����ʂ�,3_1_1,2022/7/24,4:00,3,7
�n����ʂ�,3_1_1,2022/7/24,5:00,25,26
�n����ʂ�,3_1_1,2022/7/24,6:00,40,30
�n����ʂ�,3_1_1,2022/7/24,7:00,46,42
�n����ʂ�,3_1_1,2022/7/24,8:00,119,98
�n����ʂ�,3_1_1,2022/7/24,9:00,201,131
�n����ʂ�,3_1_1,2022/7/24,10:00,224,234
�n����ʂ�,3_1_1,2022/7/24,11:00,206,238
�n����ʂ�,3_1_1,2022/7/24,12:00,292,307
�n����ʂ�,3_1_1,2022/7/24,13:00,319,298
�n����ʂ�,3_1_1,2022/7/24,14:00,348,344
�n����ʂ�,3_1_1,2022/7/24,15:00,278,244
�n����ʂ�,3_1_1,2022/7/24,16:00,246,209
�n����ʂ�,3_1_1,2022/7/24,17:00,203,139
�n����ʂ�,3_1_1,2022/7/24,18:00,130,76
�n����ʂ�,3_1_1,2022/7/24,19:00,82,64
�n����ʂ�,3_1_1,2022/7/24,20:00,56,48
�n����ʂ�,3_1_1,2022/7/24,21:00,30,23
�n����ʂ�,3_1_1,2022/7/24,22:00,6,3
�n����ʂ�,3_1_1,2022/7/24,23:00,7,1
�n����ʂ�,3_1_1,2022/7/25,0:00,1,5
�n����ʂ�,3_1_1,2022/7/25,1:00,0,0
�n����ʂ�,3_1_1,2022/7/25,2:00,1,0
�n����ʂ�,3_1_1,2022/7/25,3:00,2,2
�n����ʂ�,3_1_1,2022/7/25,4:00,4,3
�n����ʂ�,3_1_1,2022/7/25,5:00,57,16
�n����ʂ�,3_1_1,2022/7/25,6:00,77,46
�n����ʂ�,3_1_1,2022/7/25,7:00,263,234
�n����ʂ�,3_1_1,2022/7/25,8:00,107,162
�n����ʂ�,3_1_1,2022/7/25,9:00,144,109
�n����ʂ�,3_1_1,2022/7/25,10:00,220,152
�n����ʂ�,3_1_1,2022/7/25,11:00,230,151
�n����ʂ�,3_1_1,2022/7/25,12:00,238,234
�n����ʂ�,3_1_1,2022/7/25,13:00,230,180
�n����ʂ�,3_1_1,2022/7/25,14:00,190,143
�n����ʂ�,3_1_1,2022/7/25,15:00,156,112
�n����ʂ�,3_1_1,2022/7/25,16:00,208,116
�n����ʂ�,3_1_1,2022/7/25,17:00,302,117
�n����ʂ�,3_1_1,2022/7/25,18:00,204,112
�n����ʂ�,3_1_1,2022/7/25,19:00,85,74
�n����ʂ�,3_1_1,2022/7/25,20:00,74,59
�n����ʂ�,3_1_1,2022/7/25,21:00,32,28
�n����ʂ�,3_1_1,2022/7/25,22:00,16,4
�n����ʂ�,3_1_1,2022/7/25,23:00,7,5
�n����ʂ�,3_1_1,2022/7/26,0:00,2,0
�n����ʂ�,3_1_1,2022/7/26,1:00,2,0
�n����ʂ�,3_1_1,2022/7/26,2:00,2,1
�n����ʂ�,3_1_1,2022/7/26,3:00,3,4
�n����ʂ�,3_1_1,2022/7/26,4:00,2,4
�n����ʂ�,3_1_1,2022/7/26,5:00,27,23
�n����ʂ�,3_1_1,2022/7/26,6:00,54,61
�n����ʂ�,3_1_1,2022/7/26,7:00,68,328
�n����ʂ�,3_1_1,2022/7/26,8:00,130,166
�n����ʂ�,3_1_1,2022/7/26,9:00,150,185
�n����ʂ�,3_1_1,2022/7/26,10:00,206,186
�n����ʂ�,3_1_1,2022/7/26,11:00,251,165
�n����ʂ�,3_1_1,2022/7/26,12:00,241,220
�n����ʂ�,3_1_1,2022/7/26,13:00,229,232
�n����ʂ�,3_1_1,2022/7/26,14:00,144,145
�n����ʂ�,3_1_1,2022/7/26,15:00,230,141
�n����ʂ�,3_1_1,2022/7/26,16:00,235,163
�n����ʂ�,3_1_1,2022/7/26,17:00,243,119
�n����ʂ�,3_1_1,2022/7/26,18:00,159,116
�n����ʂ�,3_1_1,2022/7/26,19:00,72,80
�n����ʂ�,3_1_1,2022/7/26,20:00,58,62
�n����ʂ�,3_1_1,2022/7/26,21:00,99,44
�n����ʂ�,3_1_1,2022/7/26,22:00,15,20
�n����ʂ�,3_1_1,2022/7/26,23:00,6,1
�n����ʂ�,3_1_1,2022/7/27,0:00,3,2
�n����ʂ�,3_1_1,2022/7/27,1:00,1,2
�n����ʂ�,3_1_1,2022/7/27,2:00,5,2
�n����ʂ�,3_1_1,2022/7/27,3:00,2,5
�n����ʂ�,3_1_1,2022/7/27,4:00,2,10
�n����ʂ�,3_1_1,2022/7/27,5:00,28,15
�n����ʂ�,3_1_1,2022/7/27,6:00,36,54
�n����ʂ�,3_1_1,2022/7/27,7:00,96,276
�n����ʂ�,3_1_1,2022/7/27,8:00,125,195
�n����ʂ�,3_1_1,2022/7/27,9:00,187,161
�n����ʂ�,3_1_1,2022/7/27,10:00,158,195
�n����ʂ�,3_1_1,2022/7/27,11:00,195,212